Home > Weather > Nagercoil > Past weeks

Flag for India Weather for the Past 2 Weeks in Nagercoil, Tamil Nadu, India

Now
82 °F

Scattered clouds.


Feels Like: 91 °F
Forecast: 81 / 95 °F
Wind: 5 mph from East

Location: Thiruvananthapuram

Current Time: May 4, 2016 at 7:44:03 PM

Latest Report: May 4, 2016 at 7:00 PM


Visibility: 2 mi

Pressure: 29.74 "Hg

Humidity: 84%

Dew Point: 77 °F

Location of NagercoilLocation

Historic Weather in Nagercoil — Graph

°F

Nagercoil Temperature Yesterday

Maximum temperature yesterday: 95 °F (at 1:00 PM)
Minimum temperature yesterday: 84 °F (at 3:30 AM)
Average temperature yesterday: 89 °F

High & Low Weather Summary for the Past Weeks

 TemperatureHumidityPressure
High95 °F (Apr 22, 2:00 PM)100% (May 1, 3:30 PM)29.89 "Hg (May 1, 3:30 PM)
Low73 °F (May 1, 3:30 PM)59% (Apr 23, 11:00 AM)29.62 "Hg (Apr 24, 3:30 PM)
Average88 °F74%29.77 "Hg
* Reported Apr 19 7:30 PM — May 4 6:30 PM, Nagercoil, Weather by CustomWeather, © 2016

Note: Actual official high and low records may vary slightly from our data, if they occured in-between our weather recording intervals... More about our weather records

Advertising

Nagercoil Weather History for the Previous 24 Hours

Scroll right to see more
 ConditionsComfort  
Time TempWeatherWind HumidityBarometerVisibility
6:30 PM
Wed, May 4
82 °FThunderstorms. Broken clouds.3 mph84%29.74 "Hg2 mi
6:00 PM81 °FThunderstorms. Broken clouds.6 mph89%29.74 "Hg2 mi
5:00 PM91 °FThunderstorms. Broken clouds.3 mph67%29.71 "Hg3 mi
4:30 PM91 °FScattered clouds.12 mph67%29.68 "Hg4 mi
4:00 PM91 °FScattered clouds.8 mph67%29.68 "Hg4 mi
3:30 PM93 °FPassing clouds.10 mph63%29.71 "Hg4 mi
2:30 PM93 °FPassing clouds.13 mph59%29.71 "Hg4 mi
1:30 PM93 °FPassing clouds.12 mph59%29.74 "Hg4 mi
12:30 PM93 °FPassing clouds.10 mph59%29.77 "Hg4 mi
11:30 AM93 °FPassing clouds.10 mph59%29.80 "Hg4 mi
11:00 AM93 °FPassing clouds.13 mph59%29.80 "Hg4 mi
10:30 AM91 °FPassing clouds.10 mph63%29.80 "Hg4 mi
10:00 AM93 °FPassing clouds.7 mph59%29.83 "Hg4 mi
9:30 AM91 °FPassing clouds.9 mph63%29.83 "Hg4 mi
9:00 AM90 °FPassing clouds.9 mph67%29.80 "Hg4 mi
8:30 AM90 °FHaze.8 mph67%29.80 "Hg3 mi
8:00 AM88 °FHaze.8 mph70%29.80 "Hg3 mi
7:30 AM88 °FScattered clouds.6 mph70%29.77 "Hg3 mi
7:00 AM86 °FScattered clouds.6 mph75%29.77 "Hg2 mi
6:30 AM84 °FPassing clouds.3 mph79%29.77 "Hg2 mi
6:00 AM84 °FPassing clouds.5 mph79%29.74 "Hg2 mi
5:30 AM84 °FPassing clouds.3 mph79%29.74 "Hg2 mi
5:00 AM84 °FPassing clouds.3 mph79%29.74 "Hg2 mi
4:30 AM86 °FPassing clouds.3 mph75%29.74 "Hg2 mi
4:00 AM86 °FPassing clouds.5 mph75%29.74 "Hg2 mi
3:30 AM86 °FPassing clouds.5 mph75%29.71 "Hg2 mi
3:00 AM86 °FPassing clouds.5 mph75%29.74 "Hg2 mi
2:30 AM86 °FPassing clouds.3 mph79%29.74 "Hg2 mi
1:30 AM86 °FPassing clouds.3 mph75%29.74 "Hg2 mi
12:30 AM88 °FPassing clouds.3 mph70%29.77 "Hg2 mi
11:30 PM
Tue, May 3
88 °FPassing clouds.5 mph70%29.80 "Hg2 mi
10:30 PM88 °FPassing clouds.3 mph70%29.80 "Hg2 mi
10:00 PM88 °FPassing clouds.5 mph75%29.80 "Hg2 mi
9:30 PM88 °FPassing clouds.5 mph70%29.80 "Hg2 mi
9:00 PM88 °FPassing clouds.7 mph75%29.80 "Hg2 mi
8:30 PM90 °FPassing clouds.9 mph71%29.77 "Hg2 mi
7:30 PM90 °FPassing clouds.10 mph71%29.74 "Hg2 mi
7:00 PM90 °FScattered clouds.10 mph71%29.74 "Hg3 mi
Weather by CustomWeather, © 2016

See weather overviewHow to use our weather pages